Погода Жигалово

Погода Жигалово : погода сейчас, прогноз погоды и архив. Всё, что Вы хотите узнать о погоде Жигалово!

Хотите узнать прогноз погоды Жигалово? Тогда Вам сюда: Погода Жигалово

Поиск расширенной информации на нашем сайте:

Другие новости

Новости СМИ2

Главная страница сайта

Новости сайта

03.07.2017

Напоминаем, что на нашем специализированном сайте Метеоцентр.Азия вы можете получить высокодетализированные автоматические прогнозы погоды по пунктам России, СНГ и мира в авиационном формате (включающие направление и скорость ветра, видимость, явления погоды, количество и форму облачности, нижнюю и верхнюю границу облачности).


Погода Жигалово - сегодня

Время (UTC), дата Ветер
(°,м/с) 
Видим.   Явления Облачность Т
(°С)
Тd
(°С)
f(%) Тe
(°С)
Pmin
(гПа)
dP
(гПа)
Po
(мм)
O2
(г/м3)
Тmin Tmax R s Состояние
почвы
06 19.10.18 тихо ()   20000 м  {туман}  10/0 верхняя 
[Cs]
+2.6 -1.2 76 +3  1019.2  -2.3  726  290           
09 19.10.18 290 (З) 20000 м    10/0 верхняя 
[Cs]
+4.4 -0.8 69 +5  1017.3  -1.5  725  287           
12 19.10.18 тихо ()   н/о    10/0 средняя, верхняя 
[As trans|Cs]
-2.3 -3.9 89 -2  1018.7  0.1  725  295    +5.5       
15 19.10.18 тихо ()   н/о    6/0 верхняя 
[Ci fib]
-4.6 -5.8 91 -5  1019.1  -0.1  725  298           
18 19.10.18 тихо ()   н/о    6/0 верхняя 
[Ci fib]
-4.3 -5.4 92 -4  1018.8  -0.2  725  297           
21 19.10.18 110 (В) н/о  туман  ?/?  
-4.7 -5.8 92 -4  1017.9  -1  724  297           
00 20.10.18 тихо ()   0500 м  туман  ?/?  
-4.8 -5.9 92 -5  1018  0.2  724  298  -5.3         
03 20.10.18 070 (В) 20000 м  в посл. час туман  10/0 средняя 
[Ac und]
-1.9 -2.9 93 -1  1017.5  724  294           
06 20.10.18 тихо ()   20000 м  {туман}  10/3 600 м кучево-дожд., средняя 
[Cb cap|Ac und]
-0.2 -1.5 91 -0  1016.7  -0.4  724  292           
09 20.10.18 070 (В) 10 км    10/8 600 м кучево-дожд., средняя 
[Cb cap|Ac und]
+0.3 -1.8 86 +1  1017.5  0.8  724  292           
12 20.10.18 280 (З) н/о    10/8 600 м кучево-дожд., средняя 
[Cb cap|Ac und]
-0.2 -1.8 89 1018.5  0.9  725  293    +0.5       
15 20.10.18 250 (З) н/о  слаб. ливневой дождь со снегом  10/10 600 м кучево-дожд. 
[Cb cap]
+0.6 -1.1 88 1018.8  0.5  725  292           
18 20.10.18 тихо ()   н/о  слаб. ливневой дождь со снегом  10/10 600 м кучево-дожд. 
[Cb cap]
+0.1 -1.7 88 1019  725  292           
21 20.10.18 260 (З) н/о  {ливн. осадки}  10/10 600 м кучево-дожд. 
[Cb cap]
+0.2 -2.2 84 -1  1019.5  0.5  726  292           
00 21.10.18 250 (З) 10 км  {ливн. осадки}  10/6 600 м кучево-дожд., средняя 
[Cb cap|Ac und]
-0.7 -3 84 -2  1020.3  0.6  726  294  -0.7    0.3  <0.5  равномерный
мокрый или
старый снег
100% 
03 21.10.18 280 (З) 10 км    10/8 600 м кучево-дожд., верхняя 
[Cb cap|Ci fib]
+0.8 -2.7 77 -2  1020.8  0.8  727  292           
06 21.10.18 280 (З) 10 км    10/10 600 м кучево-дожд. 
[Cb cap]
+2.3 -3.3 66 +1  1020.4  -0.2  727  291           
09 21.10.18 040 (СВ) 10 км    6/6 600 м кучево-дожд. 
[Cb cap]
+2.8 -6.1 52 +2  1020.9  0.6  727  291           
12 21.10.18 тихо ()   н/о    10/10 600 м кучево-дожд. 
[Cb cap]
-1.1 -4.9 75 -1  1022.4  0.7  728  295    +3.7       
15 21.10.18 тихо ()   н/о    8/8 600 м кучево-дожд. 
[Cb cap]
-1.6 -4.3 82 -2  1022.3  -0.2  728  295           
18 21.10.18 тихо ()   н/о    8/8 600 м кучево-дожд. 
[Cb cap]
-1.8 -3.8 86 -2  1021.3  -1  727  295           
21 21.10.18 тихо ()   н/о    10/10 600 м кучево-дожд. 
[Cb cap]
-2 -4 86 -2  1020  -1.2  726  295           
00 22.10.18 070 (В) 10 км    10/10 600 м кучево-дожд. 
[Cb cap]
-2.1 -3.9 87 -2  1019.4  -0.6  725  295  -2.2         
03 22.10.18 080 (В) 10 км    10/5 600 м кучево-дожд., средняя 
[Cb cap|Ac und]
-0.1 -3.9 76 +1  1018.3  -0.7  725  293           
06 22.10.18 120 (ЮВ) 20000 м    6/3 600 м кучево-дожд., средняя 
[Cb cap|Ac trans]
+1.4 -6.6 55 +1  1016.5  -1.5  724  291           
Время (UTC), дата Ветер
(°,м/с) 
Видим.   Явления Облачность Т
(°С)
Тd
(°С)
f(%) Тe
(°С)
Pmin
(гПа)
dP
(гПа)
Po
(мм)
O2
(г/м3)
Тmin Tmax R s Состояние
почвы

Для получения пояснительной информации подведите курсор к названию столбца.

ПОГОДА Жигалово - архив

Всё, что Вы хотите узнать о погоде Жигалово - удобно и подробно!

Выберите нужную дату (начиная с 1 января 2015* года) и нажмите кнопку "Найти".
Будут отображены архивные сводки погоды по пункту Жигалово, начиная с указанной даты.


Отображать данные в формате CSV (для использования в таблицах Excel)


Внимание! Наш архив погоды предназначен исключительно для личного некоммерческого использования в познавательных целях. Если Вам необходимы официальные справки о состоянии погоды (для производственных, юридических, коммерческих и т.п. целей), обращайтесь в органы Росгидромета.

*Примечание: данная дата относится к архиву по метеостанциям СССР (Россия, СНГ, Балтия).
Архив по метеостанциям Зарубежной Европы и Азии (кроме Китая) хранится 10 дней, по другим регионам земного шара (Китай, Африка, Америка, Австралия, Океания) - 1 день.

Жигалово - район местоположения метеостанции


Название, широта, долгота, высота метеостанции:
Жигалово 54.8°ш. 105.2°д. 426 м над ур. моря [Российская Федерация]

Дополнительная информация

В oтличие oт бoльшинства пoгoдных сайтoв мы публикуем пoдрoбную метеoинфoрмацию в детальнoм прoфессиoнальнoм фoрмате.

Характеристики температуры и влажнoсти вoздуха измеряются на высoте 2 м в тени вдали oт зданий и деревьев.
Скoрoсть ветра измеряется на высoте 10 м (на урoвне рoста челoвека скoрoсть ветра ниже в 1.5-2 раза). Если метеoстанция нахoдится в гoрoде или в лесу, тo скoрoсть ветра занижена на 2-4 м/с пo сравнению с oткрытым местoм. Скoрoсть ветра над акватoриями крупных рек и oзёр, а также на вершинах хoлмoв на 2-5 м/с выше, чем в oбычных услoвиях.
Атмoсфернoе давление в разных тoчках местнoсти мoжет значительнo oтличаться oт давления на метеoстанции, в зависимoсти oт услoвий рельефа (при пoдъёме на 10 м давление пoнижается примернo на 1 мм рт.ст.).